[[{"header":{"parameterUnit":"m.s-1","parameterCategory":2,"la1":30.2992,"la2":30.254,"lo1":-89.0895,"lo2":-89.0443,"dy":0.0025,"dx":0.0025,"nx":19,"ny":19,"refTime":"2026-04-11T21:00:00:Z","depth":"0","parameterNumber":2,"parameterNumberName":"U-component_of_CURRENTS"},"data":[0,0,0,0.0408,0.0409,0.0425,0.0425,0.0473,0.0473,0,0,0,0,0,0,0,0,0,0,0,0.0401,0.0401,0.0408,0.0409,0.0425,0.0425,0.0473,0.0473,0,0,0,0,0,0,0,0,0,0,0,0.0402,0.0401,0.0401,0.0409,0.0425,0.0425,0.0473,0.0456,0,0,0,0,0,0,0,0,0,0,0.0437,0.0426,0.0401,0.0401,0.0409,0.0425,0.0425,0.0455,0.0457,0.047,0,0.0465,0,0.0468,0.0476,0.0476,0,0,0,0.0417,0.0424,0.0425,0.0401,0.0409,0.0425,0.042,0.0456,0.0458,0.0473,0.0466,0.0467,0.0469,0.0476,0.0477,0.0488,0.0488,0,0,0.0416,0.0411,0.0423,0.0426,0.0404,0.0419,0.042,0.0457,0.0458,0.0466,0.0468,0.0469,0.0477,0.0477,0.0488,0.0488,0,0,0,0.0408,0.041,0.041,0.0424,0.0424,0.042,0.0421,0.0457,0.0455,0.0469,0.047,0.0477,0.0478,0.0488,0.0488,0.0503,0,0,0,0.0408,0.0405,0.041,0.0408,0.0423,0.0437,0.042,0.0453,0.0457,0.047,0.0477,0.0478,0.0489,0.0488,0.0503,0.0584,0,0,0,0.0402,0.0405,0.0403,0.0407,0.0411,0.0436,0.0438,0.0453,0.0457,0.0476,0.0478,0.0489,0.0488,0.0503,0.0581,0.0795,0,0,0,0.0403,0.04,0.0402,0.0401,0.041,0.0416,0.0437,0.0446,0.0459,0.0477,0.0488,0.0488,0.0503,0.058,0.079,0.1029,0.1071,0,0,0.0401,0.0399,0.0399,0.0402,0.0411,0.0415,0.0425,0.0449,0.0457,0.0481,0.0481,0.0503,0.0581,0.0794,0.0998,0.1042,0,0,0,0.04,0.0405,0.0405,0.0411,0.0412,0.0432,0.0436,0.0442,0.0463,0.046,0.0488,0.0539,0.0673,0.0804,0.0838,0.0841,0.0486,0.0486,0.0486,0.0424,0.0419,0.0429,0.0428,0.0429,0.0439,0.0467,0.0477,0.0458,0.0461,0.0536,0.0694,0.0823,0.0854,0.0848,0.048,0.048,0.048,0.048,0.0457,0.0488,0.0461,0.0473,0.0477,0.0488,0.0507,0.0508,0.0636,0.0535,0.0665,0.0792,0.0893,0.0873,0.0481,0.0481,0.0481,0.0481,0.0481,0.0522,0.0538,0.0524,0.054,0.056,0.0556,0.0687,0.069,0.0718,0.0804,0.1087,0.1089,0.1103,0.0914,0.0916,0.0917,0.0918,0.0919,0.092,0.0621,0.0601,0.0639,0.0629,0.0662,0.0743,0.0838,0.0969,0.1177,0.1201,0.1204,0.1167,0.0831,0.0849,0.0939,0.0935,0.0933,0.0931,0.093,0.0769,0.0733,0.0808,0.0837,0.0908,0.1046,0.1121,0.1468,0.1626,0.1799,0.1677,0.1444,0.1517,0.149,0.1526,0.1787,0.1787,0.1787,0.1788,0.0883,0.086,0.0999,0.1079,0.1176,0.1213,0.1536,0.1751,0.1982,0.2072,0.2022,0.1894,0.1859,0.194,0.1903,0.1942,0.2302,0.2302,0.2303,0.1008,0.1031,0.1182,0.1216,0.1302,0.1421,0.1667,0.187,0.2196,0.2309,0.1981,0.1959,0.1737,0.1683,0.177,0.1718,0.1766,0,0]},{"header":{"parameterUnit":"m.s-1","parameterCategory":2,"la1":30.2992,"la2":30.254,"lo1":-89.0895,"lo2":-89.0443,"dy":0.0025,"dx":0.0025,"nx":19,"ny":19,"refTime":"2026-04-11T21:00:00:Z","depth":"0","parameterNumber":3,"parameterNumberName":"V-component_of_CURRENTS"},"data":[0,0,0,-0.0447,-0.0446,-0.0436,-0.0436,-0.0456,-0.0456,0,0,0,0,0,0,0,0,0,0,0,-0.0456,-0.0456,-0.0447,-0.0446,-0.0436,-0.0436,-0.0456,-0.0456,0,0,0,0,0,0,0,0,0,0,0,-0.0456,-0.0456,-0.0456,-0.0446,-0.0436,-0.0436,-0.0456,-0.0456,0,0,0,0,0,0,0,0,0,0,-0.0462,-0.0469,-0.0456,-0.0456,-0.0446,-0.0436,-0.0436,-0.0456,-0.0456,-0.047,0,-0.0471,0,-0.0462,-0.0458,-0.0458,0,0,0,-0.0448,-0.0469,-0.0461,-0.0456,-0.0446,-0.0436,-0.0441,-0.0455,-0.0456,-0.0471,-0.0471,-0.0471,-0.0462,-0.0458,-0.0459,-0.0508,-0.0508,0,0,-0.0448,-0.0459,-0.0461,-0.0461,-0.0447,-0.0441,-0.0441,-0.0455,-0.0462,-0.0471,-0.0471,-0.0462,-0.0459,-0.0459,-0.0508,-0.0508,0,0,0,-0.0449,-0.046,-0.0451,-0.0461,-0.0455,-0.0441,-0.044,-0.0461,-0.0457,-0.0471,-0.0463,-0.0459,-0.0459,-0.0507,-0.0508,-0.0475,0,0,0,-0.0449,-0.046,-0.0451,-0.0458,-0.0455,-0.0454,-0.0446,-0.0456,-0.0457,-0.0463,-0.0459,-0.0459,-0.0507,-0.0507,-0.0475,-0.0389,0,0,0,-0.0456,-0.046,-0.0459,-0.0459,-0.0452,-0.0453,-0.045,-0.0456,-0.0452,-0.0458,-0.046,-0.0507,-0.0507,-0.0476,-0.0392,-0.022,0,0,0,-0.0467,-0.0473,-0.046,-0.0467,-0.0452,-0.046,-0.045,-0.0461,-0.047,-0.0459,-0.0507,-0.0508,-0.0476,-0.0394,-0.0225,0.0049,0.0091,0,0,-0.048,-0.0476,-0.0479,-0.0466,-0.0472,-0.0461,-0.0474,-0.048,-0.0486,-0.0504,-0.0505,-0.0475,-0.0393,-0.0221,0.0004,0.0049,0,0,0,-0.0486,-0.0486,-0.0487,-0.0486,-0.0488,-0.0471,-0.0491,-0.0489,-0.0491,-0.0493,-0.05,-0.0448,-0.034,-0.0187,-0.0153,-0.0241,-0.0511,-0.0511,-0.0511,-0.0507,-0.0501,-0.05,-0.0494,-0.0499,-0.0492,-0.0465,-0.0466,-0.0508,-0.0507,-0.0443,-0.0314,-0.0159,-0.0128,-0.0228,-0.0507,-0.0506,-0.0506,-0.0506,-0.0496,-0.0469,-0.0484,-0.0472,-0.0464,-0.0466,-0.044,-0.0438,-0.0341,-0.0437,-0.0335,-0.0189,-0.0087,-0.0208,-0.0505,-0.0505,-0.0505,-0.0505,-0.0505,-0.0462,-0.0443,-0.0447,-0.0418,-0.0396,-0.0394,-0.0236,-0.0248,-0.0251,-0.0176,0.0082,0.0084,0.0013,-0.0104,-0.0103,-0.0101,-0.0101,-0.01,-0.0099,-0.0396,-0.0403,-0.0344,-0.0338,-0.0291,-0.0188,-0.0078,0.0051,0.021,0.0209,0.0212,0.0057,-0.0188,-0.0165,-0.0082,-0.0085,-0.0087,-0.0089,-0.009,-0.0286,-0.0293,-0.0195,-0.0141,-0.0006,0.0226,0.028,0.063,0.0725,0.0871,0.0568,0.0439,0.0501,0.0473,0.0514,0.0768,0.0768,0.0768,0.0768,-0.019,-0.0197,-0.0006,0.0134,0.0313,0.0447,0.0918,0.1118,0.1101,0.1038,0.086,0.0747,0.0717,0.0778,0.0744,0.0783,0.11,0.11,0.1099,-0.0078,-0.0043,0.0149,0.0269,0.0473,0.0762,0.1225,0.1487,0.1339,0.1086,0.0679,0.0665,0.0453,0.0413,0.0462,0.0422,0.0469,0,0]}],[{"header":{"parameterUnit":"m.s-1","parameterCategory":2,"la1":30.2992,"la2":30.254,"lo1":-89.0895,"lo2":-89.0443,"dy":0.0025,"dx":0.0025,"nx":19,"ny":19,"refTime":"2026-04-11T21:00:00:Z","depth":"2","parameterNumber":2,"parameterNumberName":"U-component_of_CURRENTS"},"data":[0,0,0,0.033,0.0331,0.0351,0.0351,0.0319,0.0319,0,0,0,0,0,0,0,0,0,0,0,0.0318,0.0319,0.033,0.0331,0.0351,0.0351,0.0319,0.0319,0,0,0,0,0,0,0,0,0,0,0,0.0318,0.0319,0.0319,0.0331,0.0351,0.0351,0.0319,0.0318,0,0,0,0,0,0,0,0,0,0,0.0306,0.0305,0.0319,0.0319,0.0331,0.0351,0.0351,0.0319,0.0318,0.0295,0,0.0297,0,0.0309,0.0316,0.0315,0,0,0,0.0329,0.0306,0.031,0.0319,0.0331,0.0351,0.0341,0.0319,0.0318,0.0294,0.0297,0.0296,0.0308,0.0315,0.0315,0.0326,0.0327,0,0,0.0328,0.0321,0.0311,0.031,0.0334,0.0341,0.0342,0.0319,0.0316,0.0297,0.0296,0.0308,0.0315,0.0315,0.0326,0.0326,0,0,0,0.0326,0.032,0.0327,0.0311,0.032,0.0341,0.0343,0.0317,0.0319,0.0296,0.0307,0.0315,0.0314,0.0325,0.0326,0.0364,0,0,0,0.0325,0.032,0.0326,0.0323,0.0321,0.0327,0.0341,0.0321,0.0319,0.0308,0.0315,0.0314,0.0325,0.0325,0.0361,0.0434,0,0,0,0.0318,0.0319,0.0321,0.0322,0.0333,0.0328,0.0329,0.0321,0.0326,0.0315,0.0313,0.0324,0.0325,0.0359,0.0429,0.0605,0,0,0,0.0311,0.0309,0.0321,0.0324,0.0333,0.0347,0.033,0.0333,0.0327,0.0314,0.0325,0.0326,0.0359,0.0426,0.0599,0.0695,0.0728,0,0,0.0304,0.0308,0.0311,0.0322,0.0347,0.0344,0.0365,0.0347,0.0338,0.0326,0.0327,0.0362,0.0429,0.0603,0.076,0.0792,0,0,0,0.0306,0.0318,0.0323,0.0344,0.0351,0.0379,0.0366,0.0368,0.0379,0.0341,0.0375,0.0417,0.0527,0.0572,0.0596,0.0331,0.0331,0.0331,0.0331,0.0323,0.0334,0.0353,0.0374,0.038,0.0401,0.0428,0.0434,0.0394,0.0417,0.0454,0.0627,0.067,0.0691,0.0433,0.0433,0.0433,0.0433,0.0433,0.0363,0.0404,0.0395,0.0422,0.0442,0.0463,0.0487,0.049,0.0603,0.0509,0.0613,0.0616,0.0722,0.0437,0.0436,0.0435,0.0435,0.0435,0.0435,0.0436,0.0455,0.0457,0.0495,0.053,0.0536,0.0649,0.0667,0.0689,0.0768,0.0914,0.0913,0.072,0.0852,0.0853,0.0854,0.0855,0.0856,0.0857,0.0531,0.0525,0.0573,0.0589,0.0625,0.0697,0.0794,0.0892,0.1028,0.1029,0.103,0.0772,0.0758,0.0749,0.0873,0.087,0.0868,0.0866,0.0865,0.0662,0.0645,0.0714,0.075,0.0821,0.0903,0.1002,0.1224,0.1354,0.145,0.1198,0.1184,0.1219,0.1198,0.1201,0.1436,0.1436,0.1436,0.1436,0.0756,0.0749,0.0836,0.0896,0.0977,0.1005,0.1178,0.1244,0.1362,0.1349,0.1351,0.1194,0.1176,0.1197,0.1176,0.1172,0.1401,0.14,0.1399,0.0846,0.0852,0.0926,0.0948,0.1025,0.1097,0.1158,0.1116,0.1218,0.1382,0.1178,0.1466,0.1235,0.1207,0.1233,0.1201,0.1193,0,0]},{"header":{"parameterUnit":"m.s-1","parameterCategory":2,"la1":30.2992,"la2":30.254,"lo1":-89.0895,"lo2":-89.0443,"dy":0.0025,"dx":0.0025,"nx":19,"ny":19,"refTime":"2026-04-11T21:00:00:Z","depth":"2","parameterNumber":3,"parameterNumberName":"V-component_of_CURRENTS"},"data":[0,0,0,-0.0408,-0.0409,-0.0406,-0.0406,-0.0395,-0.0395,0,0,0,0,0,0,0,0,0,0,0,-0.0413,-0.0413,-0.0408,-0.0409,-0.0406,-0.0406,-0.0395,-0.0395,0,0,0,0,0,0,0,0,0,0,0,-0.0413,-0.0413,-0.0414,-0.0409,-0.0406,-0.0405,-0.0395,-0.0397,0,0,0,0,0,0,0,0,0,0,-0.0401,-0.0413,-0.0413,-0.0414,-0.0409,-0.0406,-0.0405,-0.0398,-0.0397,-0.0396,0,-0.0402,0,-0.0399,-0.0394,-0.0394,0,0,0,-0.0403,-0.0413,-0.0408,-0.0414,-0.0409,-0.0406,-0.0405,-0.0397,-0.0397,-0.0395,-0.0402,-0.0402,-0.0399,-0.0394,-0.0394,-0.0413,-0.0414,0,0,-0.0403,-0.0414,-0.0408,-0.0408,-0.0417,-0.0406,-0.0405,-0.0397,-0.0403,-0.0402,-0.0402,-0.0399,-0.0394,-0.0394,-0.0413,-0.0413,0,0,0,-0.0408,-0.0414,-0.041,-0.0409,-0.0409,-0.0406,-0.0405,-0.0403,-0.0401,-0.0401,-0.0399,-0.0394,-0.0394,-0.0413,-0.0413,-0.0429,0,0,0,-0.0407,-0.0417,-0.041,-0.0417,-0.041,-0.0408,-0.0412,-0.0402,-0.0401,-0.0399,-0.0394,-0.0394,-0.0413,-0.0413,-0.0428,-0.0352,0,0,0,-0.0412,-0.0417,-0.0419,-0.0417,-0.0417,-0.0408,-0.0406,-0.0401,-0.0399,-0.0394,-0.0394,-0.0412,-0.0413,-0.0427,-0.0354,-0.0255,0,0,0,-0.0419,-0.041,-0.042,-0.0411,-0.0417,-0.0409,-0.0406,-0.0408,-0.0406,-0.0394,-0.0413,-0.0413,-0.0427,-0.0354,-0.0257,-0.0209,-0.0194,0,0,-0.0404,-0.0409,-0.0401,-0.0409,-0.0395,-0.0408,-0.0415,-0.0418,-0.0415,-0.0413,-0.0414,-0.0428,-0.0354,-0.0256,-0.0244,-0.0228,0,0,0,-0.0393,-0.0389,-0.0386,-0.0386,-0.0387,-0.04,-0.0417,-0.0428,-0.044,-0.0418,-0.0436,-0.0387,-0.0325,-0.0302,-0.029,-0.0416,-0.0416,-0.0416,-0.0416,-0.039,-0.0383,-0.0375,-0.0375,-0.0382,-0.0404,-0.0403,-0.0422,-0.0448,-0.0466,-0.041,-0.0349,-0.0332,-0.0321,-0.0465,-0.0465,-0.0465,-0.0465,-0.0465,-0.0374,-0.0363,-0.0376,-0.0367,-0.0387,-0.0404,-0.0405,-0.0421,-0.0368,-0.043,-0.0372,-0.0333,-0.0308,-0.0467,-0.0466,-0.0466,-0.0466,-0.0466,-0.0466,-0.0378,-0.0364,-0.0375,-0.036,-0.0366,-0.038,-0.0293,-0.0298,-0.0322,-0.0276,-0.0196,-0.0195,-0.0281,-0.0248,-0.0247,-0.0246,-0.0246,-0.0245,-0.0245,-0.0367,-0.0368,-0.0333,-0.0329,-0.0304,-0.0257,-0.0187,-0.0129,-0.0097,-0.0133,-0.0133,-0.0273,-0.028,-0.0265,-0.0234,-0.0236,-0.0237,-0.0238,-0.0239,-0.0317,-0.0317,-0.0259,-0.0225,-0.0144,-0.0036,0.0009,0.0118,0.0159,0.0176,-0.0044,-0.0052,-0.0005,-0.0016,0.0006,0.0107,0.0107,0.0107,0.0107,-0.0268,-0.0268,-0.0173,-0.0088,0.0009,0.008,0.0298,0.0374,0.031,0.0236,0.0231,0.0137,0.012,0.0169,0.0154,0.0177,0.0324,0.0324,0.0325,-0.0204,-0.0195,-0.0114,-0.0048,0.0072,0.021,0.0438,0.057,0.0418,0.0333,0.0268,0.0122,-0.0038,-0.0056,-0.0002,-0.0018,0.0011,0,0]}],[{"header":{"parameterUnit":"m.s-1","parameterCategory":2,"la1":30.2992,"la2":30.254,"lo1":-89.0895,"lo2":-89.0443,"dy":0.0025,"dx":0.0025,"nx":19,"ny":19,"refTime":"2026-04-11T21:00:00:Z","depth":"4","parameterNumber":2,"parameterNumberName":"U-component_of_CURRENTS"},"data":[0,0,0,0.0192,0.0194,0.029,0.029,0.0344,0.0344,0,0,0,0,0,0,0,0,0,0,0,0.0163,0.0163,0.0192,0.0194,0.029,0.029,0.0344,0.0344,0,0,0,0,0,0,0,0,0,0,0,0.0163,0.0163,0.0164,0.0195,0.029,0.029,0.0344,0.029,0,0,0,0,0,0,0,0,0,0,0.0207,0.0191,0.0163,0.0164,0.0195,0.029,0.029,0.0289,0.0294,0.0279,0,0.0296,0,0.0315,0.0345,0.0345,0,0,0,0.0202,0.0187,0.0207,0.0164,0.0196,0.0289,0.0249,0.0292,0.0298,0.0285,0.0297,0.0299,0.0316,0.0345,0.0346,0.042,0.0421,0,0,0.0196,0.0185,0.0203,0.021,0.0222,0.0246,0.0252,0.0296,0.0304,0.0297,0.0301,0.0317,0.0346,0.0346,0.042,0.042,0,0,0,0.0176,0.0181,0.0202,0.0207,0.0227,0.0248,0.0255,0.0302,0.0308,0.0301,0.0317,0.0346,0.0346,0.0419,0.042,0.0524,0,0,0,0.0173,0.0169,0.0199,0.0194,0.0227,0.0276,0.026,0.0305,0.0311,0.0317,0.0346,0.0346,0.0418,0.0419,0.052,0.0514,0,0,0,0.0158,0.0167,0.0178,0.0193,0.023,0.0276,0.0286,0.0308,0.032,0.0345,0.0346,0.0418,0.0419,0.0516,0.0509,0.0569,0,0,0,0.0143,0.0164,0.0178,0.0205,0.0229,0.0282,0.0286,0.0329,0.0353,0.0346,0.0418,0.042,0.0515,0.0506,0.0565,0.0401,0,0,0,0.0158,0.0165,0.0181,0.0195,0.0237,0.0269,0.033,0.0362,0.0373,0.0398,0.04,0.0521,0.0509,0.0568,0.0496,0,0,0,0,0.0178,0.0189,0.0205,0.0233,0.027,0.0333,0.036,0.0416,0.0501,0.0395,0.0524,0.0512,0.0547,0.0441,0.0427,0.0427,0.0427,0.0427,0.0427,0.0175,0.0195,0.022,0.0253,0.0293,0.0376,0.0454,0.053,0.0524,0.0603,0.0602,0.0715,0.061,0.0633,0.0633,0.0634,0.0634,0.0634,0.0635,0.018,0.0185,0.0226,0.0262,0.0328,0.0398,0.0555,0.0617,0.0733,0.0714,0.0745,0.0563,0.0645,0.0643,0.0641,0.064,0.0639,0.0639,0.0638,0.0156,0.016,0.0191,0.0244,0.035,0.0458,0.0601,0.0727,0.0808,0.0849,0.0729,0.0772,0.0758,0.0877,0.0877,0.0877,0.0877,0.0878,0.0878,0.011,0.0138,0.0166,0.0247,0.0311,0.0451,0.0659,0.072,0.0807,0.0789,0.0864,0.0796,0.0788,0.077,0.0882,0.0881,0.0881,0.088,0.088,0.0066,0.0085,0.0124,0.0171,0.0301,0.0399,0.0592,0.0692,0.0742,0.0732,0.077,0.0774,0.071,0.0704,0.068,0.077,0.0768,0.0766,0,0.0027,0.0041,0.0083,0.0138,0.0212,0.0358,0.0417,0.0503,0.0608,0.0606,0.0696,0.0736,0.0739,0.0659,0.0651,0.0618,0,0,0,-0.0006,0.0016,0.003,0.0087,0.0174,0.0288,0.0432,0.0462,0.0605,0.0593,0.0723,0.0735,0.0725,0.0895,0.0805,0.0796,0.0762,0,0]},{"header":{"parameterUnit":"m.s-1","parameterCategory":2,"la1":30.2992,"la2":30.254,"lo1":-89.0895,"lo2":-89.0443,"dy":0.0025,"dx":0.0025,"nx":19,"ny":19,"refTime":"2026-04-11T21:00:00:Z","depth":"4","parameterNumber":3,"parameterNumberName":"V-component_of_CURRENTS"},"data":[0,0,0,0.0347,0.0348,0.035,0.035,0.0344,0.0344,0,0,0,0,0,0,0,0,0,0,0,0.0347,0.0347,0.0347,0.0348,0.035,0.035,0.0344,0.0344,0,0,0,0,0,0,0,0,0,0,0,0.0347,0.0347,0.0347,0.0348,0.035,0.035,0.0344,0.0343,0,0,0,0,0,0,0,0,0,0,0.0341,0.0347,0.0347,0.0347,0.0348,0.035,0.035,0.0343,0.0343,0.0342,0,0.0348,0,0.0348,0.0344,0.0344,0,0,0,0.0342,0.0347,0.0346,0.0347,0.0348,0.035,0.0347,0.0343,0.0343,0.0342,0.0348,0.0347,0.0348,0.0344,0.0344,0.0422,0.0423,0,0,0.0342,0.0348,0.0346,0.0346,0.0355,0.0347,0.0347,0.0343,0.0347,0.0348,0.0347,0.0348,0.0344,0.0344,0.0421,0.0422,0,0,0,0.0345,0.0348,0.0346,0.0347,0.0349,0.0347,0.0348,0.0347,0.0347,0.0347,0.0348,0.0344,0.0344,0.042,0.0422,0.0438,0,0,0,0.0345,0.035,0.0347,0.035,0.0349,0.035,0.0352,0.0347,0.0346,0.0348,0.0344,0.0344,0.0419,0.0421,0.0436,0.0415,0,0,0,0.0346,0.035,0.0352,0.035,0.0354,0.035,0.0349,0.0347,0.0347,0.0344,0.0344,0.0419,0.0421,0.0433,0.0413,0.036,0,0,0,0.0349,0.0362,0.0352,0.0374,0.0354,0.0387,0.0349,0.0367,0.037,0.0344,0.0419,0.0422,0.0433,0.0411,0.036,0.0342,0,0,0,0.0367,0.0365,0.0379,0.037,0.041,0.0385,0.0435,0.0416,0.0402,0.0416,0.0418,0.0437,0.0412,0.036,0.0466,0,0,0,0,0.0386,0.0399,0.041,0.0431,0.0445,0.0466,0.0459,0.0463,0.0471,0.0414,0.0474,0.0459,0.0424,0.0417,0.0432,0.0431,0.0431,0.0431,0.0431,0.0413,0.0428,0.0462,0.0486,0.0508,0.053,0.0537,0.0546,0.0525,0.0544,0.0501,0.0511,0.0513,0.055,0.055,0.055,0.055,0.055,0.055,0.0444,0.0455,0.0496,0.0535,0.0565,0.0609,0.0619,0.0605,0.0566,0.0574,0.0539,0.0475,0.0553,0.0552,0.0552,0.0552,0.0551,0.0551,0.0551,0.0439,0.0445,0.0485,0.0545,0.061,0.0644,0.0649,0.0623,0.0573,0.0536,0.0471,0.0499,0.0459,0.0493,0.0493,0.0493,0.0492,0.0492,0.0492,0.0399,0.044,0.0481,0.0552,0.0604,0.0641,0.0642,0.0601,0.0531,0.047,0.0504,0.0491,0.0492,0.0456,0.0488,0.0489,0.0489,0.049,0.049,0.0363,0.0384,0.0439,0.0492,0.0596,0.0616,0.0632,0.0546,0.0464,0.0391,0.0429,0.0433,0.0403,0.0406,0.0365,0.0371,0.037,0.037,0,0.0323,0.0342,0.0413,0.0486,0.0538,0.0594,0.0522,0.0482,0.0404,0.039,0.0426,0.0471,0.0473,0.0444,0.0446,0.0401,0,0,0,0.0295,0.0321,0.0364,0.0451,0.0526,0.0491,0.0496,0.046,0.0432,0.0385,0.0365,0.0367,0.0495,0.0475,0.0437,0.0439,0.0376,0,0]}]]